Hancock, MI

4:26 PM EDT on August 27, 2016 (GMT -0400)
Houghton County Memorial

Weather History for KCMX - May, 2013

Change the Weather History Date:

Sunday, May 19, 2013

  Actual Average Record
Temperature  
Mean Temperature 55 °F -  
Max Temperature 66 °F 63 °F 89 °F (2012)
Min Temperature 44 °F 41 °F 28 °F (2002)
Degree Days  
Heating Degree Days 10    
Growing Degree Days 5 (Base 50)    
Moisture  
Dew Point 50 °F    
Average Humidity 86    
Maximum Humidity 100    
Minimum Humidity 72    
Precipitation  
Precipitation 0.00 in - - ()
Sea Level Pressure  
Sea Level Pressure 29.88 in    
Wind  
Wind Speed 9 mph (East)    
Max Wind Speed 20 mph    
Max Gust Speed 31 mph    
Visibility 7 miles    
Events Fog , Rain    
Averages and records for this station are not official NWS values.
T = Trace of Precipitation, MM = Missing Value Source: NWS Daily Summary

Daily Weather History Graph

Daily Weather History Graph

Search for Another Location

Airport or City:

Trip Planner

Search our weather history database for the weather conditions in past years. The results will help you decide how hot, cold, wet, or windy it might be!

Date:

Astronomy

May. 19, 2013 Rise Set
Actual Time 6:13 AM EDT 9:28 PM EDT
Civil Twilight 5:36 AM EDT 10:05 PM EDT
Nautical Twilight 4:48 AM EDT 10:53 PM EDT
Astronomical Twilight 3:47 AM EDT 11:55 PM EDT
Moon 3:10 PM EDT (5/19) 3:01 AM EDT (5/19)
Length of Visible Light 16h 29m
Length of Day
15h 15m
Waxing Gibbous, 65% of the Moon is Illuminated
May 19
Waxing Gibbous
May 25
Full
May 31
Last Quarter
Jun 8
New
Jun 16
First Quarter

Hourly Weather History & Observations

Time (EDT) Temp. Windchill Dew Point Humidity Pressure Visibility Wind Dir Wind Speed Gust Speed Precip Events Conditions
12:53 AM 44.1 °F 38.6 °F 42.1 °F 93% 29.93 in 10.0 mi ENE 10.4 mph - N/A   Partly Cloudy
1:53 AM 44.6 °F 39.7 °F 42.8 °F 93% 29.90 in 10.0 mi ENE 9.2 mph - N/A   Clear
2:53 AM 46.9 °F - 43.0 °F 86% 29.91 in 10.0 mi Variable 3.5 mph - N/A   Mostly Cloudy
3:53 AM 50.0 °F - 45.0 °F 83% 29.91 in 10.0 mi Calm Calm - N/A   Scattered Clouds
4:53 AM 53.1 °F - 48.0 °F 83% 29.90 in 10.0 mi WSW 3.5 mph - N/A   Clear
5:53 AM 55.9 °F - 50.0 °F 80% 29.91 in 10.0 mi Calm Calm - N/A   Scattered Clouds
6:53 AM 57.9 °F - 53.1 °F 84% 29.91 in 10.0 mi NW 3.5 mph - N/A   Overcast
7:53 AM 60.8 °F - 55.4 °F 82% 29.88 in 7.0 mi Calm Calm - N/A   Overcast
8:53 AM 63.0 °F - 57.0 °F 81% 29.89 in 8.0 mi Calm Calm - N/A   Mostly Cloudy
9:53 AM 64.9 °F - 59.0 °F 81% 29.90 in 9.0 mi Calm Calm - N/A   Mostly Cloudy
10:53 AM 64.9 °F - 57.9 °F 78% 29.91 in 8.0 mi East 5.8 mph - 0.00 in Rain Light Rain
11:53 AM 64.9 °F - 59.0 °F 81% 29.91 in 10.0 mi East 6.9 mph - 0.00 in   Overcast
12:53 PM 57.0 °F - 51.1 °F 81% 29.92 in 10.0 mi East 8.1 mph - N/A   Mostly Cloudy
1:53 PM 62.1 °F - 53.1 °F 72% 29.88 in 10.0 mi East 10.4 mph - N/A   Scattered Clouds
2:53 PM 60.8 °F - 51.8 °F 72% 29.86 in 10.0 mi East 12.7 mph - N/A   Clear
3:53 PM 62.6 °F - 53.6 °F 72% 29.86 in 10.0 mi East 15.0 mph 21.9 mph N/A   Clear
4:53 PM 64.0 °F - 55.0 °F 73% 29.86 in 10.0 mi East 15.0 mph - N/A   Clear
5:53 PM 66.0 °F - 57.0 °F 73% 29.86 in 10.0 mi East 13.8 mph 21.9 mph N/A   Clear
6:53 PM 57.9 °F - 51.1 °F 78% 29.85 in 10.0 mi ESE 12.7 mph 23.0 mph N/A   Mostly Cloudy
7:53 PM 53.1 °F - 48.0 °F 83% 29.86 in 9.0 mi East 19.6 mph 31.1 mph N/A   Overcast
8:16 PM 50.0 °F - 46.4 °F 87% 29.86 in 7.0 mi East 15.0 mph 27.6 mph 0.00 in   Overcast
8:46 PM 48.2 °F - 46.4 °F 93% 29.86 in 2.5 mi East 16.1 mph 24.2 mph 0.00 in   Overcast
8:53 PM 48.0 °F - 46.0 °F 93% 29.88 in 2.0 mi East 16.1 mph 23.0 mph 0.00 in   Overcast
9:02 PM 46.4 °F 40.7 °F 46.4 °F 100% 29.87 in 0.8 mi East 12.7 mph - N/A   Overcast
9:16 PM 46.4 °F 40.4 °F 46.4 °F 100% 29.86 in 0.2 mi East 13.8 mph 21.9 mph N/A Fog Fog
9:23 PM 46.4 °F 40.1 °F 44.6 °F 93% 29.85 in 0.2 mi East 15.0 mph 23.0 mph N/A Fog Fog
9:46 PM 48.2 °F - 46.4 °F 93% 29.84 in 2.0 mi East 15.0 mph 25.3 mph N/A   Mostly Cloudy
9:53 PM 48.0 °F - 46.9 °F 96% 29.86 in 5.0 mi East 16.1 mph 25.3 mph N/A   Mostly Cloudy
9:59 PM 48.2 °F - 46.4 °F 93% 29.86 in 5.0 mi East 15.0 mph 24.2 mph N/A   Mostly Cloudy
10:12 PM 48.2 °F - 46.4 °F 93% 29.85 in 5.0 mi East 16.1 mph 24.2 mph N/A   Partly Cloudy
10:50 PM 48.2 °F - 46.4 °F 93% 29.85 in 5.0 mi East 19.6 mph 26.5 mph N/A   Mostly Cloudy
10:53 PM 48.9 °F - 46.9 °F 93% 29.86 in 5.0 mi East 15.0 mph 26.5 mph N/A   Mostly Cloudy
11:53 PM 48.2 °F - 46.4 °F 93% 29.88 in 5.0 mi East 16.1 mph 26.5 mph N/A   Overcast